Location: Caramacate
(10.0289°N, 66.7587°W)
Time: 21:54:01
(UTC+00:00)

Cosmos 1455 Rocket - Pass Details

Date: 05 August 2024
Orbit: 600 x 626 km, 82.5° (Epoch: 07 September)

Event Time Altitude Azimuth Distance (km) Brightness Sun altitude
Rises 23:28:02 0° 347° (NNW) 2,836 6.9 -10.1°
Reaches altitude 10° 23:30:18 10° 341° (NNW) 1,933 6.2 -10.6°
Maximum altitude 23:34:25 48° 267° (W) 788 4.1 -11.5°
Drops below altitude 10° 23:38:32 10° 193° (SSW) 1,938 5.5 -12.5°
Sets 23:40:48 0° 187° (S) 2,843 6.3 -13.0°
